Time,TemperatureF,DewpointF,PressureIn,WindDirection,WindDirectionDegrees,WindSpeedMPH,WindSpeedGustMPH,Humidity,HourlyPrecipIn,Conditions,Clouds,dailyrainin,SoftwareType,DateUTC
2013-06-09 00:02:00,54.0,42.0,-100.00,ENE,70,2.0,4.0,64,-99.99,,,-99.99,,2013-06-09 08:02:00,
2013-06-09 00:12:00,54.0,42.0,-100.00,ENE,70,2.0,4.0,64,-99.99,,,-99.99,,2013-06-09 08:12:00,
2013-06-09 00:22:00,51.0,42.0,-100.00,ESE,115,3.0,5.0,71,-99.99,,,-99.99,,2013-06-09 08:22:00,
2013-06-09 00:32:00,51.0,42.0,-100.00,ESE,115,3.0,5.0,71,-99.99,,,-99.99,,2013-06-09 08:32:00,
2013-06-09 00:42:00,51.0,42.0,-100.00,ESE,115,3.0,5.0,71,-99.99,,,-99.99,,2013-06-09 08:42:00,
2013-06-09 00:53:00,49.0,42.0,-100.00,ESE,105,4.0,6.0,76,-99.99,,,-99.99,,2013-06-09 08:53:00,
2013-06-09 01:02:00,49.0,42.0,-100.00,ESE,105,4.0,6.0,76,-99.99,,,-99.99,,2013-06-09 09:02:00,
2013-06-09 01:12:00,49.0,42.0,-100.00,ESE,105,4.0,6.0,76,-99.99,,,-99.99,,2013-06-09 09:12:00,
2013-06-09 01:22:00,47.0,41.0,-100.00,East,95,4.0,7.0,81,-99.99,,,-99.99,,2013-06-09 09:22:00,
2013-06-09 01:32:00,47.0,41.0,-100.00,East,95,4.0,7.0,81,-99.99,,,-99.99,,2013-06-09 09:32:00,
2013-06-09 01:43:00,47.0,41.0,-100.00,East,95,4.0,7.0,81,-99.99,,,-99.99,,2013-06-09 09:43:00,
2013-06-09 01:52:00,45.0,41.0,-100.00,East,100,4.0,6.0,85,-99.99,,,-99.99,,2013-06-09 09:52:00,
2013-06-09 02:03:00,45.0,41.0,-100.00,East,100,4.0,6.0,85,-99.99,,,-99.99,,2013-06-09 10:03:00,
2013-06-09 02:23:00,43.0,40.0,-100.00,ESE,105,4.0,6.0,88,-99.99,,,-99.99,,2013-06-09 10:23:00,
2013-06-09 02:32:00,43.0,40.0,-100.00,ESE,105,4.0,6.0,88,-99.99,,,-99.99,,2013-06-09 10:32:00,
2013-06-09 02:43:00,43.0,40.0,-100.00,ESE,105,4.0,6.0,88,-99.99,,,-99.99,,2013-06-09 10:43:00,
2013-06-09 02:52:00,42.0,40.0,-100.00,East,100,4.0,5.0,91,-99.99,,,-99.99,,2013-06-09 10:52:00,
2013-06-09 03:02:00,42.0,40.0,-100.00,East,100,4.0,5.0,91,-99.99,,,-99.99,,2013-06-09 11:02:00,
2013-06-09 03:22:00,41.0,39.0,-100.00,East,95,4.0,6.0,93,-99.99,,,-99.99,,2013-06-09 11:22:00,
2013-06-09 03:32:00,41.0,39.0,-100.00,East,95,4.0,6.0,93,-99.99,,,-99.99,,2013-06-09 11:32:00,
2013-06-09 03:42:00,41.0,39.0,-100.00,East,95,4.0,6.0,93,-99.99,,,-99.99,,2013-06-09 11:42:00,
2013-06-09 03:52:00,40.0,39.0,-100.00,ESE,105,4.0,6.0,95,-99.99,,,-99.99,,2013-06-09 11:52:00,
2013-06-09 04:02:00,40.0,39.0,-100.00,ESE,105,4.0,6.0,95,-99.99,,,-99.99,,2013-06-09 12:02:00,
2013-06-09 04:22:00,40.0,39.0,-100.00,East,95,4.0,6.0,95,-99.99,,,-99.99,,2013-06-09 12:22:00,
2013-06-09 04:32:00,40.0,39.0,-100.00,East,95,4.0,6.0,95,-99.99,,,-99.99,,2013-06-09 12:32:00,
2013-06-09 04:42:00,40.0,39.0,-100.00,East,95,4.0,6.0,95,-99.99,,,-99.99,,2013-06-09 12:42:00,
2013-06-09 04:52:00,40.0,38.0,-100.00,East,100,4.0,6.0,96,-99.99,,,-99.99,,2013-06-09 12:52:00,
2013-06-09 05:02:00,40.0,38.0,-100.00,East,100,4.0,6.0,96,-99.99,,,-99.99,,2013-06-09 13:02:00,
2013-06-09 05:22:00,39.0,38.0,-100.00,East,80,4.0,7.0,96,-99.99,,,-99.99,,2013-06-09 13:22:00,
2013-06-09 05:32:00,39.0,38.0,-100.00,East,80,4.0,7.0,96,-99.99,,,-99.99,,2013-06-09 13:32:00,
2013-06-09 05:42:00,39.0,38.0,-100.00,East,80,4.0,7.0,96,-99.99,,,-99.99,,2013-06-09 13:42:00,
2013-06-09 05:52:00,38.0,37.0,-100.00,East,95,6.0,7.0,96,-99.99,,,-99.99,,2013-06-09 13:52:00,
2013-06-09 06:01:00,38.0,37.0,-100.00,East,95,6.0,7.0,96,-99.99,,,-99.99,,2013-06-09 14:01:00,
2013-06-09 06:22:00,38.0,37.0,-100.00,East,95,4.0,7.0,96,-99.99,,,-99.99,,2013-06-09 14:22:00,
2013-06-09 06:32:00,38.0,37.0,-100.00,East,95,4.0,7.0,96,-99.99,,,-99.99,,2013-06-09 14:32:00,
2013-06-09 06:43:00,38.0,37.0,-100.00,East,95,4.0,7.0,96,-99.99,,,-99.99,,2013-06-09 14:43:00,
2013-06-09 06:52:00,40.0,38.0,-100.00,East,95,5.0,7.0,95,-99.99,,,-99.99,,2013-06-09 14:52:00,
2013-06-09 07:02:00,40.0,38.0,-100.00,East,95,5.0,7.0,95,-99.99,,,-99.99,,2013-06-09 15:02:00,
2013-06-09 07:22:00,42.0,39.0,-100.00,East,90,3.0,4.0,89,-99.99,,,-99.99,,2013-06-09 15:22:00,
2013-06-09 07:32:00,42.0,39.0,-100.00,East,90,3.0,4.0,89,-99.99,,,-99.99,,2013-06-09 15:32:00,
2013-06-09 07:43:00,42.0,39.0,-100.00,East,90,3.0,4.0,89,-99.99,,,-99.99,,2013-06-09 15:43:00,
2013-06-09 07:53:00,48.0,43.0,-100.00,ESE,110,1.0,2.0,82,-99.99,,,-99.99,,2013-06-09 15:53:00,
2013-06-09 08:03:00,48.0,43.0,-100.00,ESE,110,1.0,2.0,82,-99.99,,,-99.99,,2013-06-09 16:03:00,
2013-06-09 08:13:00,48.0,43.0,-100.00,ESE,110,1.0,2.0,82,-99.99,,,-99.99,,2013-06-09 16:13:00,
2013-06-09 08:23:00,54.0,44.0,-100.00,West,265,1.0,2.0,69,-99.99,,,-99.99,,2013-06-09 16:23:00,
2013-06-09 08:33:00,54.0,44.0,-100.00,West,265,1.0,2.0,69,-99.99,,,-99.99,,2013-06-09 16:33:00,
2013-06-09 08:42:00,54.0,44.0,-100.00,West,265,1.0,2.0,69,-99.99,,,-99.99,,2013-06-09 16:42:00,
2013-06-09 08:53:00,55.0,43.0,-100.00,WNW,290,2.0,4.0,63,-99.99,,,-99.99,,2013-06-09 16:53:00,
2013-06-09 09:02:00,55.0,43.0,-100.00,WNW,290,2.0,4.0,63,-99.99,,,-99.99,,2013-06-09 17:02:00,
2013-06-09 09:12:00,55.0,43.0,-100.00,WNW,290,2.0,4.0,63,-99.99,,,-99.99,,2013-06-09 17:12:00,
2013-06-09 09:22:00,55.0,42.0,-100.00,West,260,3.0,6.0,63,-99.99,,,-99.99,,2013-06-09 17:22:00,
2013-06-09 09:32:00,55.0,42.0,-100.00,West,260,3.0,6.0,63,-99.99,,,-99.99,,2013-06-09 17:32:00,
2013-06-09 09:42:00,55.0,42.0,-100.00,West,260,3.0,6.0,63,-99.99,,,-99.99,,2013-06-09 17:42:00,
2013-06-09 09:52:00,56.0,43.0,-100.00,WNW,290,2.0,4.0,62,-99.99,,,-99.99,,2013-06-09 17:52:00,
2013-06-09 10:02:00,56.0,43.0,-100.00,WNW,290,2.0,4.0,62,-99.99,,,-99.99,,2013-06-09 18:02:00,
2013-06-09 10:12:00,56.0,43.0,-100.00,WNW,290,2.0,4.0,62,-99.99,,,-99.99,,2013-06-09 18:12:00,
2013-06-09 10:21:00,56.0,44.0,-100.00,WNW,290,4.0,7.0,63,-99.99,,,-99.99,,2013-06-09 18:21:00,
2013-06-09 10:32:00,56.0,44.0,-100.00,WNW,290,4.0,7.0,63,-99.99,,,-99.99,,2013-06-09 18:32:00,
2013-06-09 10:42:00,56.0,44.0,-100.00,WNW,290,4.0,7.0,63,-99.99,,,-99.99,,2013-06-09 18:42:00,
2013-06-09 10:52:00,56.0,45.0,-100.00,WNW,285,3.0,6.0,66,-99.99,,,-99.99,,2013-06-09 18:52:00,
2013-06-09 11:02:00,56.0,45.0,-100.00,WNW,285,3.0,6.0,66,-99.99,,,-99.99,,2013-06-09 19:02:00,
2013-06-09 11:12:00,56.0,45.0,-100.00,WNW,285,3.0,6.0,66,-99.99,,,-99.99,,2013-06-09 19:12:00,
2013-06-09 11:22:00,57.0,46.0,-100.00,WNW,285,4.0,8.0,67,-99.99,,,-99.99,,2013-06-09 19:22:00,
2013-06-09 11:32:00,57.0,46.0,-100.00,WNW,285,4.0,8.0,67,-99.99,,,-99.99,,2013-06-09 19:32:00,
2013-06-09 11:42:00,57.0,46.0,-100.00,WNW,285,4.0,8.0,67,-99.99,,,-99.99,,2013-06-09 19:42:00,
2013-06-09 11:52:00,55.0,46.0,-100.00,WNW,285,4.0,9.0,70,-99.99,,,-99.99,,2013-06-09 19:52:00,
2013-06-09 12:02:00,55.0,46.0,-100.00,WNW,285,4.0,9.0,70,-99.99,,,-99.99,,2013-06-09 20:02:00,
2013-06-09 12:12:00,55.0,46.0,-100.00,WNW,285,4.0,9.0,70,-99.99,,,-99.99,,2013-06-09 20:12:00,
2013-06-09 12:22:00,58.0,47.0,-100.00,WNW,300,3.0,6.0,67,-99.99,,,-99.99,,2013-06-09 20:22:00,
2013-06-09 12:32:00,58.0,47.0,-100.00,WNW,300,3.0,6.0,67,-99.99,,,-99.99,,2013-06-09 20:32:00,
2013-06-09 12:42:00,58.0,47.0,-100.00,WNW,300,3.0,6.0,67,-99.99,,,-99.99,,2013-06-09 20:42:00,
2013-06-09 12:52:00,61.0,44.0,-100.00,WNW,285,4.0,7.0,53,-99.99,,,-99.99,,2013-06-09 20:52:00,
2013-06-09 13:02:00,61.0,44.0,-100.00,WNW,285,4.0,7.0,53,-99.99,,,-99.99,,2013-06-09 21:02:00,
2013-06-09 13:12:00,61.0,44.0,-100.00,WNW,285,4.0,7.0,53,-99.99,,,-99.99,,2013-06-09 21:12:00,
2013-06-09 13:22:00,61.0,44.0,-100.00,West,265,4.0,7.0,53,-99.99,,,-99.99,,2013-06-09 21:22:00,
2013-06-09 13:33:00,61.0,44.0,-100.00,West,265,4.0,7.0,53,-99.99,,,-99.99,,2013-06-09 21:33:00,
2013-06-09 13:43:00,61.0,44.0,-100.00,West,265,4.0,7.0,53,-99.99,,,-99.99,,2013-06-09 21:43:00,
2013-06-09 13:53:00,60.0,43.0,-100.00,West,260,4.0,10.0,54,-99.99,,,-99.99,,2013-06-09 21:53:00,
2013-06-09 14:02:00,60.0,43.0,-100.00,West,260,4.0,10.0,54,-99.99,,,-99.99,,2013-06-09 22:02:00,
2013-06-09 14:12:00,60.0,43.0,-100.00,West,260,4.0,10.0,54,-99.99,,,-99.99,,2013-06-09 22:12:00,
2013-06-09 14:22:00,60.0,42.0,-100.00,West,260,6.0,11.0,52,-99.99,,,-99.99,,2013-06-09 22:22:00,
2013-06-09 14:33:00,60.0,42.0,-100.00,West,260,6.0,11.0,52,-99.99,,,-99.99,,2013-06-09 22:33:00,
2013-06-09 14:42:00,60.0,42.0,-100.00,West,260,6.0,11.0,52,-99.99,,,-99.99,,2013-06-09 22:42:00,
2013-06-09 14:52:00,60.0,42.0,-100.00,WSW,250,7.0,12.0,52,-99.99,,,-99.99,,2013-06-09 22:52:00,
2013-06-09 15:02:00,60.0,42.0,-100.00,WSW,250,7.0,12.0,52,-99.99,,,-99.99,,2013-06-09 23:02:00,
2013-06-09 15:12:00,60.0,42.0,-100.00,WSW,250,7.0,12.0,52,-99.99,,,-99.99,,2013-06-09 23:12:00,
2013-06-09 15:22:00,61.0,42.0,-100.00,WSW,255,6.0,13.0,49,-99.99,,,-99.99,,2013-06-09 23:22:00,
2013-06-09 15:32:00,61.0,42.0,-100.00,WSW,255,6.0,13.0,49,-99.99,,,-99.99,,2013-06-09 23:32:00,
2013-06-09 15:42:00,61.0,42.0,-100.00,WSW,255,6.0,13.0,49,-99.99,,,-99.99,,2013-06-09 23:42:00,
2013-06-09 15:52:00,63.0,41.0,-100.00,WSW,250,9.0,14.0,45,-99.99,,,-99.99,,2013-06-09 23:52:00,
2013-06-09 16:02:00,63.0,41.0,-100.00,WSW,250,9.0,14.0,45,-99.99,,,-99.99,,2013-06-10 00:02:00,
2013-06-09 16:12:00,63.0,41.0,-100.00,WSW,250,9.0,14.0,45,-99.99,,,-99.99,,2013-06-10 00:12:00,
2013-06-09 16:22:00,65.0,42.0,-100.00,West,260,6.0,13.0,42,-99.99,,,-99.99,,2013-06-10 00:22:00,
2013-06-09 16:32:00,65.0,42.0,-100.00,West,260,6.0,13.0,42,-99.99,,,-99.99,,2013-06-10 00:32:00,
2013-06-09 16:42:00,65.0,42.0,-100.00,West,260,6.0,13.0,42,-99.99,,,-99.99,,2013-06-10 00:42:00,
2013-06-09 16:52:00,67.0,40.0,-100.00,WSW,255,9.0,12.0,38,-99.99,,,-99.99,,2013-06-10 00:52:00,
2013-06-09 17:02:00,67.0,40.0,-100.00,WSW,255,9.0,12.0,38,-99.99,,,-99.99,,2013-06-10 01:02:00,
2013-06-09 17:12:00,67.0,40.0,-100.00,WSW,255,9.0,12.0,38,-99.99,,,-99.99,,2013-06-10 01:12:00,
2013-06-09 17:22:00,68.0,40.0,-100.00,WSW,250,6.0,12.0,37,-99.99,,,-99.99,,2013-06-10 01:22:00,
2013-06-09 17:32:00,68.0,40.0,-100.00,WSW,250,6.0,12.0,37,-99.99,,,-99.99,,2013-06-10 01:32:00,
2013-06-09 17:42:00,68.0,40.0,-100.00,WSW,250,6.0,12.0,37,-99.99,,,-99.99,,2013-06-10 01:42:00,
2013-06-09 17:52:00,68.0,39.0,-100.00,SW,225,4.0,12.0,35,-99.99,,,-99.99,,2013-06-10 01:52:00,
2013-06-09 18:02:00,68.0,39.0,-100.00,SW,225,4.0,12.0,35,-99.99,,,-99.99,,2013-06-10 02:02:00,
2013-06-09 18:12:00,68.0,39.0,-100.00,SW,225,4.0,12.0,35,-99.99,,,-99.99,,2013-06-10 02:12:00,
2013-06-09 18:22:00,69.0,40.0,-100.00,WSW,245,7.0,11.0,35,-99.99,,,-99.99,,2013-06-10 02:22:00,
2013-06-09 18:31:00,69.0,40.0,-100.00,WSW,245,7.0,11.0,35,-99.99,,,-99.99,,2013-06-10 02:31:00,
2013-06-09 18:42:00,69.0,40.0,-100.00,WSW,245,7.0,11.0,35,-99.99,,,-99.99,,2013-06-10 02:42:00,
2013-06-09 18:52:00,69.0,40.0,-100.00,West,260,5.0,11.0,35,-99.99,,,-99.99,,2013-06-10 02:52:00,
2013-06-09 19:02:00,69.0,40.0,-100.00,West,260,5.0,11.0,35,-99.99,,,-99.99,,2013-06-10 03:02:00,
2013-06-09 19:22:00,70.0,40.0,-100.00,SSW,205,2.0,7.0,34,-99.99,,,-99.99,,2013-06-10 03:22:00,
2013-06-09 19:53:00,70.0,40.0,-100.00,South,185,3.0,9.0,34,-99.99,,,-99.99,,2013-06-10 03:53:00,
2013-06-09 20:03:00,70.0,40.0,-100.00,South,185,3.0,9.0,34,-99.99,,,-99.99,,2013-06-10 04:03:00,
2013-06-09 20:12:00,70.0,40.0,-100.00,South,185,3.0,9.0,34,-99.99,,,-99.99,,2013-06-10 04:12:00,
2013-06-09 20:23:00,71.0,41.0,-100.00,SW,230,3.0,7.0,34,-99.99,,,-99.99,,2013-06-10 04:23:00,
2013-06-09 20:42:00,71.0,41.0,-100.00,SW,230,3.0,7.0,34,-99.99,,,-99.99,,2013-06-10 04:42:00,
2013-06-09 20:52:00,71.0,41.0,-100.00,NE,50,1.0,3.0,34,-99.99,,,-99.99,,2013-06-10 04:52:00,
2013-06-09 21:02:00,71.0,41.0,-100.00,NE,50,1.0,3.0,34,-99.99,,,-99.99,,2013-06-10 05:02:00,
2013-06-09 21:12:00,71.0,41.0,-100.00,NE,50,1.0,3.0,34,-99.99,,,-99.99,,2013-06-10 05:12:00,
2013-06-09 21:22:00,71.0,41.0,-100.00,SSW,200,1.0,6.0,34,-99.99,,,-99.99,,2013-06-10 05:22:00,
2013-06-09 21:32:00,71.0,41.0,-100.00,SSW,200,1.0,6.0,34,-99.99,,,-99.99,,2013-06-10 05:32:00,
2013-06-09 21:42:00,71.0,41.0,-100.00,SSW,200,1.0,6.0,34,-99.99,,,-99.99,,2013-06-10 05:42:00,
2013-06-09 21:52:00,70.0,41.0,-100.00,SE,145,1.0,6.0,35,-99.99,,,-99.99,,2013-06-10 05:52:00,
2013-06-09 22:02:00,70.0,41.0,-100.00,SE,145,1.0,6.0,35,-99.99,,,-99.99,,2013-06-10 06:02:00,
2013-06-09 22:22:00,68.0,41.0,-100.00,ESE,115,1.0,4.0,37,-99.99,,,-99.99,,2013-06-10 06:22:00,
2013-06-09 22:32:00,68.0,41.0,-100.00,ESE,115,1.0,4.0,37,-99.99,,,-99.99,,2013-06-10 06:32:00,
2013-06-09 22:42:00,68.0,41.0,-100.00,ESE,115,1.0,4.0,37,-99.99,,,-99.99,,2013-06-10 06:42:00,
2013-06-09 22:52:00,66.0,40.0,-100.00,ESE,115,3.0,6.0,39,-99.99,,,-99.99,,2013-06-10 06:52:00,
2013-06-09 23:02:00,66.0,40.0,-100.00,ESE,115,3.0,6.0,39,-99.99,,,-99.99,,2013-06-10 07:02:00,
2013-06-09 23:12:00,66.0,40.0,-100.00,ESE,115,3.0,6.0,39,-99.99,,,-99.99,,2013-06-10 07:12:00,
2013-06-09 23:22:00,61.0,40.0,-100.00,SE,130,1.0,4.0,45,-99.99,,,-99.99,,2013-06-10 07:22:00,
2013-06-09 23:32:00,61.0,40.0,-100.00,SE,130,1.0,4.0,45,-99.99,,,-99.99,,2013-06-10 07:32:00,
2013-06-09 23:42:00,61.0,40.0,-100.00,SE,130,1.0,4.0,45,-99.99,,,-99.99,,2013-06-10 07:42:00,
2013-06-09 23:52:00,57.0,41.0,-100.00,East,90,2.0,5.0,55,-99.99,,,-99.99,,2013-06-10 07:52:00,